#timestamp,LO_Frequency,Hit,StdDev 
1542564015.4,286046995.2,N
1542564035.3,286046993.9,N
1542564055.1,286046992.3,N
1542564075.9,286046993.1,N
1542564095.7,286046991.8,N
1542564115.5,286046992.2,N
1542564135.4,286046990.9,N
1542564155.2,286046992.3,N
1542564175.0,286046991.7,N
1542564175.9,286046986.3,N
1542564195.8,286046994.6,N
1542564215.6,286046997.1,N
1542564235.5,286047001.2,N
1542564255.3,286046998.9,N
1542564275.1,286047001.0,N
1542564295.9,286047001.2,N
1542564315.7,286047000.2,N
1542564335.5,286047000.1,N
1542564355.4,286047001.9,N
1542564375.2,286047002.3,N
1542564395.1,286047008.4,N
1542564396.0,286047008.4,N
1542564415.8,286047013.5,N
1542564435.6,286047012.0,N
1542564455.5,286047010.3,N
1542564475.3,286047006.3,N
1542564495.1,286047014.0,N
1542564515.9,286047008.1,N
1542564535.7,286047011.8,N
1542564555.6,286047015.0,N
1542564575.4,286047014.4,N
1542564595.2,286047016.5,N
1542564615.1,286047015.6,N
1542564616.0,286047015.6,N
1542564635.8,286047016.4,N
1542564655.6,286047013.9,N
1542564675.5,286047011.2,N
1542564695.3,286047006.2,N
1542564715.2,286047008.3,N
1542564735.9,286047022.3,N
1542564755.7,286047019.5,N
1542564775.6,286047016.6,N
1542564795.4,286047010.9,N
1542564815.2,286047012.2,N
1542564835.1,286047010.3,N
1542564836.0,286047010.3,N
1542564855.8,286047006.1,N
1542564875.7,286047009.0,N
1542564895.5,286047003.0,N
1542564915.3,286046999.8,N
1542564935.2,286047001.9,N
1542564955.0,286047000.5,N
1542564955.9,286047000.5,N
1542564975.7,286046996.6,N
1542564995.6,286046994.3,N
1542565015.4,286046993.0,N
1542565035.3,286046995.1,N
1542565055.1,286046996.9,N
1542565056.0,286046996.9,N
1542565075.8,286046997.5,N
1542565095.7,286046999.3,N
1542565115.5,286046997.3,N
1542565135.3,286047001.2,N
1542565155.2,286046994.9,N
1542565175.0,286046993.3,N
1542565175.9,286046993.3,N
1542565195.8,286046995.6,N
1542565215.6,286046991.9,N
1542565235.4,286046991.4,N
1542565255.3,286046991.3,N
1542565275.1,286046991.0,N
1542565295.8,286046990.1,N
1542565315.7,286046993.4,N
1542565335.5,286046994.1,N
1542565355.4,286046990.7,N
1542565375.2,286046991.2,N
1542565395.0,286046990.3,N
1542565395.9,286046990.3,N
1542565415.8,286046991.5,N
1542565435.6,286046987.3,Y
1542565455.5,286046994.3,P
1542565475.3,286046993.6,P
1542565495.1,286046995.7,P
1542565515.9,286046997.0,Y
1542565535.7,286047007.2,P
1542565555.5,286047009.0,N
1542565575.4,286047013.3,N
1542565595.2,286047009.6,N
1542565615.1,286047008.1,N
1542565616.0,286047008.1,N
1542565635.8,286047015.6,N
1542565655.6,286047018.5,Y
1542565675.5,286047012.3,P
1542565695.3,286047011.2,P
1542565715.1,286047007.8,P
1542565735.9,286047007.4,Y
1542565755.7,286046997.6,P
1542565775.6,286046998.8,N
1542565795.4,286047001.1,N
1542565815.2,286046996.6,N
1542565835.1,286046995.6,N
1542565836.0,286046995.6,N
1542565855.8,286046993.6,N
1542565875.7,286046994.1,N
1542565895.5,286046995.1,N
1542565915.3,286046997.9,N
1542565935.2,286047001.6,N
1542565955.9,286047006.0,N
1542565975.7,286047002.9,N
1542565995.6,286047004.3,N
1542566015.4,286047001.3,N
1542566035.2,286047000.9,N
1542566055.1,286046999.6,N
1542566056.0,286046999.6,N
1542566075.8,286046995.8,N
1542566095.7,286046994.4,N
1542566115.5,286046993.8,N
1542566135.3,286046995.5,N
1542566155.2,286046995.1,N
1542566175.0,286046997.3,N
1542566175.9,286046997.3,N
1542566195.7,286046997.3,N
1542566215.6,286046997.5,N
1542566235.4,286046994.9,N
1542566255.3,286046996.3,N
1542566275.1,286046994.3,N
1542566276.0,286046994.3,N
1542566295.8,286046992.5,N
1542566315.7,286046992.8,N
1542566335.5,286046991.5,N
1542566355.3,286046988.6,Y
1542566375.2,286046993.0,P
1542566395.0,286046990.3,P
1542566395.9,286046990.3,P
1542566415.8,286046990.7,Y
1542566435.6,286046997.3,P
1542566455.4,286046998.4,N
1542566475.3,286046999.3,N
1542566495.1,286046999.1,N
1542566515.9,286046998.9,N
1542566535.7,286046997.5,N
1542566555.5,286046993.5,Y
1542566575.4,286046997.6,P
1542566595.2,286046997.9,P
1542566615.0,286046995.2,P
1542566616.0,286046995.2,Y
1542566635.8,286046999.5,P
1542566655.6,286046997.9,N
1542566675.5,286046997.3,N
1542566695.3,286046994.9,Y
1542566715.1,286046999.2,P
1542566735.9,286047008.6,P
1542566755.7,286047008.8,N
1542566775.6,286047007.1,N
1542566795.4,286047003.6,N
1542566815.2,286047002.3,N
1542566835.1,286046998.9,N
1542566836.0,286046998.9,N
1542566855.8,286046997.6,N
1542566875.7,286046996.4,N
1542566895.5,286046994.5,N
1542566915.3,286046992.1,N
1542566935.2,286046993.9,N
1542566955.0,286046993.9,N
1542566955.9,286046993.9,N
1542566975.7,286046993.9,N
1542566995.6,286046995.6,N
1542567015.4,286046994.6,N
1542567035.3,286046992.9,N
1542567055.1,286046991.4,N
1542567056.0,286046991.4,N
1542567075.8,286046990.6,N
1542567095.7,286046991.2,N
1542567115.5,286046989.9,N
1542567135.3,286046989.5,N
1542567155.2,286046989.4,N
1542567175.0,286046988.2,N
1542567175.9,286046988.2,N
1542567195.8,286046985.8,N
1542567215.6,286046986.4,N
1542567235.4,286046982.5,N
1542567255.3,286046982.3,N
1542567275.1,286046980.8,Y
1542567295.9,286046987.8,P
1542567315.7,286046984.4,P
1542567335.5,286046986.1,P
1542567355.4,286046986.5,Y
1542567375.2,286046998.8,P
1542567395.0,286046997.0,N
1542567395.9,286046997.0,N
1542567415.8,286046998.7,N
1542567435.6,286047002.2,N
1542567455.5,286047001.7,N
1542567475.3,286047005.5,N
1542567495.1,286047006.5,N
1542567515.9,286047004.9,N
1542567535.7,286047005.6,N
1542567555.5,286047005.4,N
1542567575.4,286047005.2,N
1542567595.2,286047004.5,N
